contact:dominique.lefevre@mio.osupytheas.fr, maurice.libes@osupytheas.fr, didier.mallarino@osupytheas.fr
Project:EMSO http://www.emso-fr.org/EMSO-France
Depth: 2436.0 m
Title:EMSO Ligure Ouest : Data MII capteur AQUADOPP
Date,Latitude,Longitude,X_East,Y_North,Z_Up,Amplitude_X,Amplitude_Y,Amplitude_Z,Batterie,SoundSpeed,Heading,Pitch,Roll,Pressure,TIS,Speed,Direction
, degrees North, degrees East, m.s-1, m.s-1,m.s-1, 1, 1, 1, Volt, m.s-1, degree, degree, degree, dbar, degree_C, m.s-1, degree
2023-01-05T00:04:03,42.805,6.029,-0.049,0.002,-0.026,101.0,102.0,102.0,13.4,1505.2,326.3,-0.7,1.8,2471.127,13.29,0.049,272.3
2023-01-05T00:07:03,42.805,6.029,-0.036,-0.008,-0.005,102.0,103.0,102.0,13.4,1505.2,323.7,-0.7,1.9,2471.078,13.29,0.036,257.5
2023-01-05T00:10:03,42.805,6.029,-0.034,-0.007,-0.026,102.0,102.0,102.0,13.4,1505.2,324.8,-0.8,1.8,2471.122,13.29,0.034,258.4
2023-01-05T00:13:03,42.805,6.029,-0.023,0.0,0.003,103.0,102.0,103.0,13.4,1505.2,335.0,-0.8,1.8,2471.098,13.29,0.023,270.0
2023-01-05T00:16:03,42.805,6.029,-0.031,0.005,-0.002,103.0,102.0,102.0,13.4,1505.2,323.2,-0.7,1.8,2471.087,13.29,0.031,279.2
2023-01-05T00:19:03,42.805,6.029,-0.029,0.004,-0.012,102.0,102.0,102.0,13.4,1505.2,323.4,-0.8,1.8,2471.072,13.29,0.029,277.8
2023-01-05T00:22:03,42.805,6.029,-0.03,-0.003,0.002,102.0,103.0,102.0,13.4,1505.2,321.0,-0.7,1.8,2471.066,13.29,0.03,264.3
2023-01-05T00:25:03,42.805,6.029,-0.028,0.005,-0.023,102.0,102.0,102.0,13.4,1505.2,332.7,-0.8,1.8,2471.039,13.29,0.028,280.1
2023-01-05T00:28:03,42.805,6.029,-0.038,0.016,0.001,102.0,102.0,102.0,13.3,1505.2,334.2,-0.7,1.8,2471.074,13.29,0.041,292.8
2023-01-05T00:31:03,42.805,6.029,-0.039,-0.004,-0.031,103.0,102.0,102.0,13.3,1505.2,333.7,-0.8,1.8,2471.057,13.29,0.039,264.1
2023-01-05T00:34:03,42.805,6.029,-0.052,0.031,0.013,102.0,101.0,102.0,13.4,1505.2,329.4,-0.8,1.8,2471.044,13.29,0.06,300.8
2023-01-05T00:37:03,42.805,6.029,-0.035,0.011,-0.007,104.0,102.0,105.0,13.4,1505.2,316.5,-0.8,1.8,2471.054,13.29,0.036,287.4
2023-01-05T00:40:03,42.805,6.029,-0.042,0.007,-0.006,103.0,101.0,102.0,13.3,1505.2,319.4,-0.7,1.8,2471.022,13.29,0.042,279.5
2023-01-05T00:43:03,42.805,6.029,-0.016,-0.007,0.019,103.0,102.0,102.0,13.4,1505.2,327.7,-0.8,1.9,2471.044,13.29,0.017,246.4
2023-01-05T00:46:03,42.805,6.029,-0.048,0.0,-0.034,104.0,101.0,102.0,13.4,1505.2,322.3,-0.8,1.8,2471.084,13.29,0.048,270.0
2023-01-05T00:49:03,42.805,6.029,-0.026,-0.011,-0.007,102.0,104.0,102.0,13.3,1505.2,326.1,-0.8,1.8,2471.087,13.29,0.028,247.1
2023-01-05T00:52:03,42.805,6.029,-0.018,-0.016,-0.016,101.0,103.0,102.0,13.4,1505.2,320.0,-0.8,1.8,2471.055,13.29,0.024,228.4
2023-01-05T00:55:03,42.805,6.029,-0.034,0.0,-0.016,102.0,102.0,103.0,13.4,1505.2,323.2,-0.8,1.8,2471.067,13.29,0.034,270.0
2023-01-05T00:58:03,42.805,6.029,-0.012,0.006,0.009,103.0,102.0,102.0,13.3,1505.2,333.7,-0.8,1.8,2471.087,13.29,0.013,296.6
2023-01-05T01:04:03,42.805,6.029,-0.051,-0.015,-0.002,104.0,103.0,104.0,13.3,1505.2,329.9,-0.8,1.8,2471.113,13.29,0.053,253.6
2023-01-05T01:07:03,42.805,6.029,-0.013,-0.017,0.006,104.0,103.0,104.0,13.3,1505.2,323.7,-0.8,1.8,2471.107,13.29,0.021,217.4
2023-01-05T01:10:03,42.805,6.029,-0.026,-0.004,-0.019,103.0,102.0,103.0,13.4,1505.2,330.6,-0.8,1.8,2471.08,13.29,0.026,261.3
2023-01-05T01:13:03,42.805,6.029,-0.044,0.0,-0.033,104.0,104.0,101.0,13.4,1505.2,321.9,-0.8,1.8,2471.078,13.29,0.044,270.0
2023-01-05T01:16:03,42.805,6.029,-0.043,-0.006,-0.007,103.0,102.0,102.0,13.4,1505.2,325.5,-0.8,1.8,2471.056,13.29,0.043,262.1
2023-01-05T01:19:03,42.805,6.029,-0.012,-0.005,0.005,102.0,102.0,102.0,13.4,1505.2,331.1,-0.7,1.8,2471.058,13.29,0.013,247.4
2023-01-05T01:22:03,42.805,6.029,-0.019,-0.007,-0.031,102.0,102.0,102.0,13.4,1505.2,323.1,-0.8,1.8,2471.116,13.29,0.02,249.8
2023-01-05T01:25:03,42.805,6.029,-0.033,-0.011,0.01,105.0,101.0,103.0,13.4,1505.2,331.4,-0.8,1.8,2471.041,13.29,0.034,251.6
2023-01-05T01:28:03,42.805,6.029,-0.032,0.004,-0.044,102.0,103.0,101.0,13.4,1505.2,316.5,-0.8,1.8,2471.084,13.29,0.032,277.1
2023-01-05T01:31:03,42.805,6.029,-0.016,0.002,0.015,103.0,102.0,102.0,13.3,1505.2,320.5,-0.7,1.9,2471.079,13.29,0.016,277.1
2023-01-05T01:34:03,42.805,6.029,-0.053,0.005,0.001,102.0,102.0,102.0,13.3,1505.2,333.4,-0.8,1.8,2471.083,13.29,0.053,275.4
2023-01-05T01:37:03,42.805,6.029,-0.025,-0.008,-0.015,101.0,103.0,102.0,13.4,1505.2,331.3,-0.8,1.8,2471.102,13.29,0.026,252.3
2023-01-05T01:40:03,42.805,6.029,-0.027,-0.006,-0.018,103.0,102.0,102.0,13.4,1505.2,329.9,-0.7,1.8,2471.046,13.29,0.027,257.5
2023-01-05T01:43:03,42.805,6.029,-0.02,-0.008,-0.006,103.0,102.0,102.0,13.4,1505.2,335.5,-0.8,1.8,2471.052,13.29,0.021,248.2
2023-01-05T01:46:03,42.805,6.029,-0.045,-0.002,-0.003,102.0,103.0,102.0,13.4,1505.2,319.1,-0.7,1.8,2471.075,13.29,0.045,267.5
2023-01-05T01:49:03,42.805,6.029,-0.041,0.02,-0.007,102.0,102.0,102.0,13.4,1505.2,325.2,-0.7,1.8,2471.093,13.29,0.045,296.0
2023-01-05T01:52:03,42.805,6.029,-0.034,0.01,0.006,103.0,103.0,101.0,13.3,1505.2,324.8,-0.8,1.8,2471.095,13.29,0.035,286.4
2023-01-05T01:55:03,42.805,6.029,-0.016,0.006,-0.003,102.0,102.0,102.0,13.4,1505.2,322.1,-0.8,1.8,2471.066,13.29,0.017,290.6
2023-01-05T01:58:03,42.805,6.029,-0.021,-0.009,-0.035,102.0,102.0,102.0,13.4,1505.2,329.3,-0.8,1.8,2471.044,13.29,0.022,246.8
2023-01-05T02:04:03,42.805,6.029,-0.027,0.014,0.012,102.0,101.0,102.0,13.4,1505.2,333.4,-0.8,1.8,2471.16,13.29,0.03,297.4
2023-01-05T02:07:03,42.805,6.029,-0.042,0.012,0.014,104.0,100.0,102.0,13.4,1505.2,324.6,-0.8,1.8,2471.118,13.29,0.043,285.9
2023-01-05T02:10:03,42.805,6.029,-0.023,0.01,0.003,102.0,102.0,102.0,13.3,1505.2,328.4,-0.8,1.8,2471.126,13.29,0.025,293.5
2023-01-05T02:13:03,42.805,6.029,-0.033,-0.002,-0.005,103.0,102.0,102.0,13.4,1505.2,320.7,-0.7,1.8,2471.107,13.29,0.033,266.5
2023-01-05T02:16:03,42.805,6.029,-0.023,0.014,0.024,103.0,103.0,102.0,13.4,1505.2,324.7,-0.8,1.8,2471.114,13.29,0.026,301.3
2023-01-05T02:19:03,42.805,6.029,-0.026,-0.005,0.006,103.0,102.0,103.0,13.4,1505.2,328.4,-0.7,1.8,2471.113,13.29,0.026,259.1
2023-01-05T02:22:03,42.805,6.029,0.01,-0.018,-0.006,102.0,102.0,101.0,13.3,1505.2,327.0,-0.7,1.8,2471.096,13.29,0.02,150.9
2023-01-05T02:25:03,42.805,6.029,-0.045,-0.004,-0.045,104.0,102.0,102.0,13.4,1505.2,316.5,-0.8,1.8,2471.102,13.29,0.045,264.9
2023-01-05T02:28:03,42.805,6.029,-0.014,-0.003,-0.038,103.0,103.0,103.0,13.4,1505.2,318.9,-0.7,1.8,2471.125,13.29,0.014,257.9
2023-01-05T02:31:03,42.805,6.029,-0.041,-0.003,-0.024,103.0,102.0,102.0,13.4,1505.2,325.3,-0.8,1.8,2471.105,13.29,0.041,265.8
2023-01-05T02:34:03,42.805,6.029,-0.014,0.0,-0.023,102.0,102.0,103.0,13.4,1505.2,320.3,-0.7,1.8,2471.115,13.29,0.014,270.0
2023-01-05T02:37:03,42.805,6.029,-0.038,0.013,0.004,103.0,102.0,102.0,13.4,1505.2,331.1,-0.8,1.8,2471.073,13.29,0.04,288.9
2023-01-05T02:40:03,42.805,6.029,-0.026,0.001,0.002,102.0,104.0,101.0,13.4,1505.2,316.0,-0.8,1.8,2471.151,13.29,0.026,272.2
2023-01-05T02:43:03,42.805,6.029,-0.019,-0.015,-0.035,104.0,100.0,101.0,13.4,1505.2,322.5,-0.8,1.8,2471.113,13.29,0.024,231.7
2023-01-05T02:46:03,42.805,6.029,-0.029,-0.001,-0.002,102.0,102.0,103.0,13.3,1505.2,325.8,-0.8,1.8,2471.121,13.29,0.029,268.0
2023-01-05T02:49:03,42.805,6.029,-0.035,-0.002,-0.009,100.0,103.0,102.0,13.3,1505.2,327.1,-0.8,1.8,2471.143,13.29,0.035,266.7
2023-01-05T02:52:03,42.805,6.029,-0.032,0.0,-0.035,103.0,104.0,102.0,13.4,1505.2,329.1,-0.7,1.8,2471.127,13.29,0.032,270.0
2023-01-05T02:55:03,42.805,6.029,-0.037,0.007,0.009,102.0,102.0,101.0,13.4,1505.2,319.9,-0.8,1.8,2471.13,13.29,0.037,280.7
2023-01-05T02:58:03,42.805,6.029,-0.032,-0.004,-0.033,102.0,102.0,102.0,13.4,1505.2,328.3,-0.8,1.8,2471.124,13.29,0.032,262.9
2023-01-05T03:04:02,42.805,6.029,-0.024,0.009,0.0,102.0,102.0,102.0,13.4,1505.2,325.4,-0.8,1.8,2471.18,13.29,0.025,290.6
2023-01-05T03:07:02,42.805,6.029,-0.035,-0.009,-0.01,102.0,102.0,102.0,13.4,1505.2,326.7,-0.8,1.8,2471.206,13.29,0.036,255.6
2023-01-05T03:10:03,42.805,6.029,-0.037,0.003,-0.049,102.0,103.0,101.0,13.4,1505.2,329.9,-0.7,1.8,2471.159,13.29,0.037,274.6
2023-01-05T03:13:03,42.805,6.029,-0.016,0.0,-0.028,104.0,102.0,101.0,13.4,1505.2,333.8,-0.7,1.8,2471.207,13.29,0.016,270.0
2023-01-05T03:16:03,42.805,6.029,-0.039,0.013,0.014,103.0,101.0,105.0,13.3,1505.2,323.1,-0.8,1.7,2471.158,13.29,0.041,288.4
2023-01-05T03:19:03,42.805,6.029,-0.041,0.0,-0.011,103.0,103.0,101.0,13.4,1505.2,329.0,-0.8,1.8,2471.157,13.29,0.041,270.0
2023-01-05T03:22:02,42.805,6.029,-0.025,-0.002,-0.019,103.0,102.0,100.0,13.4,1505.2,333.4,-0.8,1.8,2471.106,13.29,0.025,265.4
2023-01-05T03:25:03,42.805,6.029,-0.029,-0.006,-0.016,104.0,102.0,101.0,13.4,1505.2,324.2,-0.8,1.8,2471.165,13.29,0.029,258.3
2023-01-05T03:28:03,42.805,6.029,-0.035,-0.003,-0.035,101.0,102.0,102.0,13.3,1505.2,323.9,-0.8,1.8,2471.152,13.29,0.035,265.1
2023-01-05T03:31:03,42.805,6.029,-0.054,-0.004,-0.029,103.0,102.0,102.0,13.4,1505.2,317.1,-0.7,1.8,2471.142,13.29,0.054,265.8
2023-01-05T03:34:03,42.805,6.029,-0.039,0.011,-0.018,100.0,101.0,103.0,13.4,1505.2,326.0,-0.7,1.8,2471.138,13.29,0.04,285.7
2023-01-05T03:37:02,42.805,6.029,-0.049,0.001,-0.013,103.0,101.0,101.0,13.4,1505.2,318.9,-0.8,1.8,2471.19,13.29,0.049,271.2
2023-01-05T03:40:03,42.805,6.029,-0.055,0.0,-0.029,101.0,103.0,102.0,13.4,1505.2,327.2,-0.8,1.8,2471.179,13.29,0.055,270.0
2023-01-05T03:43:03,42.805,6.029,-0.022,-0.006,-0.042,102.0,101.0,102.0,13.4,1505.2,317.0,-0.8,1.8,2471.15,13.29,0.022,254.7
2023-01-05T03:46:03,42.805,6.029,-0.024,-0.001,-0.004,101.0,102.0,101.0,13.3,1505.2,316.0,-0.8,1.8,2471.188,13.29,0.024,267.6
2023-01-05T03:49:03,42.805,6.029,-0.038,0.013,0.001,102.0,102.0,102.0,13.4,1505.2,321.3,-0.8,1.8,2471.154,13.29,0.04,288.9
2023-01-05T03:52:03,42.805,6.029,-0.04,0.018,0.005,102.0,101.0,101.0,13.4,1505.2,332.2,-0.7,1.8,2471.202,13.29,0.043,294.2
2023-01-05T03:55:03,42.805,6.029,-0.046,0.021,0.025,102.0,101.0,101.0,13.4,1505.2,335.4,-0.8,1.8,2471.151,13.29,0.05,294.5
2023-01-05T03:58:03,42.805,6.029,-0.042,-0.005,-0.03,102.0,102.0,102.0,13.4,1505.2,320.9,-0.8,1.8,2471.156,13.29,0.042,263.2
2023-01-05T04:04:03,42.805,6.029,-0.029,-0.008,-0.005,100.0,103.0,102.0,13.4,1505.2,318.4,-0.8,1.8,2471.224,13.28,0.03,254.6
2023-01-05T04:07:03,42.805,6.029,-0.026,0.013,-0.011,102.0,101.0,102.0,13.3,1505.2,336.6,-0.8,1.8,2471.246,13.29,0.029,296.6
2023-01-05T04:10:03,42.805,6.029,-0.037,-0.016,-0.016,102.0,101.0,102.0,13.3,1505.2,332.6,-0.8,1.8,2471.244,13.29,0.04,246.6
2023-01-05T04:13:03,42.805,6.029,-0.046,0.009,-0.007,102.0,101.0,101.0,13.4,1505.2,320.2,-0.8,1.8,2471.239,13.29,0.046,281.1
2023-01-05T04:16:03,42.805,6.029,-0.029,0.028,0.008,101.0,102.0,102.0,13.4,1505.2,333.0,-0.8,1.8,2471.223,13.29,0.04,314.0
2023-01-05T04:19:03,42.805,6.029,-0.028,0.005,0.01,100.0,102.0,102.0,13.3,1505.2,327.9,-0.8,1.8,2471.223,13.29,0.028,280.1
2023-01-05T04:22:03,42.805,6.029,-0.032,0.002,-0.005,103.0,101.0,102.0,13.4,1505.2,334.2,-0.8,1.8,2471.247,13.29,0.032,273.6
2023-01-05T04:25:03,42.805,6.029,-0.013,0.003,-0.009,101.0,102.0,102.0,13.4,1505.2,318.4,-0.7,1.8,2471.221,13.29,0.013,283.0
2023-01-05T04:28:03,42.805,6.029,-0.037,-0.002,-0.002,102.0,101.0,102.0,13.4,1505.2,334.9,-0.8,1.8,2471.174,13.29,0.037,266.9
2023-01-05T04:31:03,42.805,6.029,-0.024,-0.006,-0.005,102.0,101.0,101.0,13.4,1505.2,317.9,-0.8,1.8,2471.199,13.29,0.024,256.0
2023-01-05T04:34:03,42.805,6.029,-0.037,0.004,0.005,102.0,101.0,102.0,13.4,1505.2,324.4,-0.8,1.8,2471.233,13.29,0.037,276.2
2023-01-05T04:37:03,42.805,6.029,-0.02,0.009,0.012,101.0,102.0,102.0,13.3,1505.2,328.9,-0.8,1.8,2471.216,13.29,0.021,294.2
2023-01-05T04:40:03,42.805,6.029,-0.026,0.006,-0.025,102.0,102.0,101.0,13.4,1505.2,327.9,-0.7,1.8,2471.211,13.29,0.026,283.0
2023-01-05T04:43:03,42.805,6.029,-0.009,0.007,-0.017,102.0,102.0,101.0,13.3,1505.2,336.9,-0.8,1.8,2471.231,13.29,0.011,307.9
2023-01-05T04:46:03,42.805,6.029,-0.03,0.012,0.001,102.0,102.0,101.0,13.4,1505.2,324.5,-0.8,1.8,2471.235,13.29,0.032,291.8
2023-01-05T04:49:03,42.805,6.029,-0.026,-0.014,-0.052,103.0,100.0,102.0,13.4,1505.2,325.1,-0.8,1.8,2471.263,13.29,0.029,241.7
2023-01-05T04:52:03,42.805,6.029,-0.019,0.013,0.0,102.0,102.0,102.0,13.4,1505.2,321.8,-0.7,1.8,2471.248,13.29,0.023,304.4
2023-01-05T04:55:03,42.805,6.029,-0.028,-0.002,-0.021,102.0,103.0,101.0,13.3,1505.2,325.8,-0.8,1.8,2471.261,13.29,0.028,265.9
2023-01-05T04:58:03,42.805,6.029,-0.043,-0.002,0.011,103.0,102.0,102.0,13.4,1505.2,319.4,-0.8,1.8,2471.194,13.29,0.043,267.3
2023-01-05T05:04:03,42.805,6.029,-0.053,0.024,-0.024,101.0,102.0,102.0,13.4,1505.2,338.0,-0.8,1.8,2471.305,13.29,0.058,294.4
2023-01-05T05:07:03,42.805,6.029,-0.042,0.009,-0.001,101.0,102.0,102.0,13.3,1505.2,318.0,-0.8,1.8,2471.327,13.29,0.042,282.1
2023-01-05T05:10:03,42.805,6.029,-0.047,0.007,-0.028,101.0,102.0,102.0,13.4,1505.2,320.9,-0.8,1.8,2471.282,13.29,0.047,278.5
2023-01-05T05:13:03,42.805,6.029,-0.037,-0.016,-0.021,102.0,102.0,101.0,13.4,1505.2,316.5,-0.8,1.8,2471.252,13.29,0.04,246.6
2023-01-05T05:16:03,42.805,6.029,-0.03,0.004,-0.005,102.0,102.0,102.0,13.3,1505.2,323.9,-0.8,1.8,2471.261,13.29,0.03,277.6
2023-01-05T05:19:03,42.805,6.029,-0.03,0.025,-0.005,103.0,101.0,102.0,13.4,1505.2,327.3,-0.8,1.8,2471.259,13.29,0.039,309.8
2023-01-05T05:22:03,42.805,6.029,-0.045,0.014,0.0,103.0,101.0,102.0,13.3,1505.2,330.2,-0.8,1.8,2471.253,13.29,0.047,287.3
2023-01-05T05:25:03,42.805,6.029,-0.023,0.001,0.019,102.0,103.0,100.0,13.3,1505.2,319.5,-0.8,1.8,2471.266,13.29,0.023,272.5
2023-01-05T05:28:03,42.805,6.029,-0.045,0.0,-0.028,100.0,104.0,102.0,13.4,1505.2,328.7,-0.7,1.8,2471.261,13.29,0.045,270.0
2023-01-05T05:31:03,42.805,6.029,-0.036,0.009,0.013,102.0,100.0,102.0,13.4,1505.2,323.9,-0.8,1.8,2471.256,13.29,0.037,284.0
2023-01-05T05:34:03,42.805,6.029,-0.028,-0.008,0.0,103.0,101.0,101.0,13.3,1505.2,319.6,-0.8,1.8,2471.242,13.29,0.029,254.1
2023-01-05T05:37:03,42.805,6.029,-0.033,0.007,-0.006,101.0,102.0,102.0,13.4,1505.2,322.8,-0.8,1.8,2471.265,13.29,0.033,282.0
2023-01-05T05:40:03,42.805,6.029,-0.027,0.0,0.015,102.0,102.0,102.0,13.3,1505.2,335.2,-0.7,1.8,2471.224,13.29,0.026,270.0
2023-01-05T05:43:03,42.805,6.029,-0.034,0.026,0.048,102.0,102.0,101.0,13.4,1505.2,324.3,-0.8,1.9,2471.277,13.29,0.042,307.4
2023-01-05T05:46:03,42.805,6.029,-0.024,0.0,-0.004,103.0,102.0,102.0,13.3,1505.2,322.7,-0.8,1.8,2471.283,13.29,0.024,270.0
2023-01-05T05:49:03,42.805,6.029,-0.036,0.0,-0.008,100.0,102.0,101.0,13.4,1505.2,325.2,-0.7,1.8,2471.244,13.29,0.036,270.0
2023-01-05T05:52:03,42.805,6.029,-0.042,0.017,0.008,102.0,101.0,101.0,13.4,1505.2,323.6,-0.8,1.8,2471.238,13.29,0.045,292.0
2023-01-05T05:55:03,42.805,6.029,-0.053,0.015,0.008,101.0,103.0,101.0,13.3,1505.2,319.5,-0.8,1.8,2471.306,13.29,0.055,285.8
2023-01-05T05:58:03,42.805,6.029,-0.019,0.0,-0.011,102.0,103.0,102.0,13.4,1505.2,319.6,-0.7,1.8,2471.218,13.29,0.019,270.0
2023-01-05T06:04:03,42.805,6.029,-0.035,0.022,-0.004,103.0,101.0,102.0,13.4,1505.2,335.7,-0.8,1.8,2471.307,13.28,0.041,302.2
2023-01-05T06:07:03,42.805,6.029,-0.027,0.001,-0.019,101.0,102.0,102.0,13.3,1505.2,337.0,-0.8,1.8,2471.307,13.29,0.027,272.1
2023-01-05T06:10:03,42.805,6.029,-0.057,0.01,-0.021,102.0,102.0,102.0,13.3,1505.2,335.5,-0.8,1.8,2471.302,13.29,0.057,279.9
2023-01-05T06:13:03,42.805,6.029,-0.027,0.02,-0.003,102.0,103.0,100.0,13.4,1505.2,324.8,-0.8,1.8,2471.28,13.29,0.033,306.5
2023-01-05T06:16:03,42.805,6.029,-0.002,-0.003,-0.008,101.0,101.0,101.0,13.3,1505.2,318.1,-0.8,1.8,2471.292,13.29,0.003,213.7
2023-01-05T06:19:03,42.805,6.029,-0.015,0.01,-0.002,101.0,102.0,101.0,13.4,1505.2,316.0,-0.8,1.8,2471.316,13.29,0.018,303.7
2023-01-05T06:22:03,42.805,6.029,-0.032,0.003,-0.034,102.0,101.0,101.0,13.4,1505.2,336.1,-0.8,1.8,2471.289,13.29,0.032,275.4
2023-01-05T06:25:03,42.805,6.029,-0.004,-0.014,-0.048,101.0,101.0,101.0,13.4,1505.2,319.6,-0.8,1.8,2471.3,13.29,0.014,195.9
2023-01-05T06:28:03,42.805,6.029,-0.016,-0.021,-0.017,101.0,102.0,101.0,13.4,1505.2,326.5,-0.8,1.8,2471.298,13.29,0.026,217.3
2023-01-05T06:31:03,42.805,6.029,-0.037,0.016,-0.001,102.0,101.0,101.0,13.3,1505.2,334.5,-0.8,1.8,2471.326,13.29,0.04,293.4
2023-01-05T06:34:03,42.805,6.029,-0.025,0.016,0.001,102.0,102.0,101.0,13.4,1505.2,337.1,-0.8,1.8,2471.283,13.29,0.029,302.6
2023-01-05T06:37:03,42.805,6.029,-0.026,0.018,0.006,102.0,102.0,101.0,13.4,1505.2,325.3,-0.8,1.8,2471.292,13.29,0.031,304.7
2023-01-05T06:40:03,42.805,6.029,-0.042,0.027,0.006,101.0,101.0,101.0,13.4,1505.2,331.2,-0.8,1.8,2471.268,13.29,0.049,302.7
2023-01-05T06:43:03,42.805,6.029,-0.032,0.02,0.012,102.0,102.0,101.0,13.4,1505.2,328.2,-0.7,1.8,2471.296,13.29,0.037,302.0
2023-01-05T06:46:03,42.805,6.029,-0.045,0.009,-0.002,102.0,102.0,102.0,13.4,1505.2,336.2,-0.7,1.8,2471.283,13.29,0.045,281.3
2023-01-05T06:49:03,42.805,6.029,-0.067,0.013,0.012,101.0,101.0,101.0,13.4,1505.2,316.5,-0.8,1.8,2471.255,13.29,0.068,281.0
2023-01-05T06:52:03,42.805,6.029,-0.032,0.016,0.024,101.0,101.0,101.0,13.4,1505.2,325.6,-0.8,1.8,2471.27,13.29,0.035,296.6
2023-01-05T06:55:03,42.805,6.029,-0.018,0.014,0.006,101.0,102.0,102.0,13.4,1505.2,324.0,-0.8,1.8,2471.29,13.29,0.022,307.9
2023-01-05T06:58:03,42.805,6.029,-0.039,0.007,0.01,102.0,102.0,101.0,13.4,1505.2,325.5,-0.8,1.8,2471.281,13.29,0.039,280.2
2023-01-05T07:04:03,42.805,6.029,-0.044,0.024,-0.016,102.0,102.0,101.0,13.3,1505.2,319.5,-0.8,1.8,2471.334,13.28,0.05,298.6
2023-01-05T07:07:03,42.805,6.029,-0.04,0.01,0.012,102.0,101.0,101.0,13.4,1505.2,325.2,-0.8,1.8,2471.306,13.29,0.041,284.0
2023-01-05T07:10:03,42.805,6.029,-0.044,0.034,0.009,102.0,101.0,102.0,13.4,1505.2,329.6,-0.8,1.8,2471.318,13.29,0.055,307.7
2023-01-05T07:13:03,42.805,6.029,-0.04,0.018,0.016,101.0,101.0,101.0,13.4,1505.2,319.2,-0.7,1.9,2471.273,13.29,0.043,294.2
2023-01-05T07:16:03,42.805,6.029,-0.048,0.008,-0.008,101.0,101.0,101.0,13.4,1505.2,326.7,-0.7,1.9,2471.3,13.29,0.048,279.5
2023-01-05T07:19:03,42.805,6.029,-0.04,0.02,0.014,101.0,101.0,102.0,13.3,1505.2,323.9,-0.8,1.8,2471.266,13.29,0.044,296.6
2023-01-05T07:22:03,42.805,6.029,-0.049,0.007,-0.005,101.0,101.0,102.0,13.4,1505.2,323.8,-0.8,1.8,2471.299,13.29,0.049,278.1
2023-01-05T07:25:03,42.805,6.029,-0.005,0.007,0.001,102.0,102.0,101.0,13.3,1505.2,337.2,-0.8,1.8,2471.246,13.29,0.008,324.5
2023-01-05T07:28:03,42.805,6.029,-0.018,0.022,-0.018,101.0,102.0,102.0,13.3,1505.2,336.6,-0.8,1.8,2471.288,13.29,0.028,320.7
2023-01-05T07:31:03,42.805,6.029,-0.058,0.004,-0.006,102.0,101.0,102.0,13.4,1505.2,318.0,-0.8,1.8,2471.286,13.29,0.058,273.9
2023-01-05T07:34:03,42.805,6.029,-0.034,0.006,0.002,101.0,102.0,101.0,13.4,1505.2,332.6,-0.8,1.8,2471.266,13.29,0.034,280.0
2023-01-05T07:37:03,42.805,6.029,-0.03,0.005,0.016,103.0,100.0,101.0,13.3,1505.2,333.4,-0.8,1.8,2471.266,13.29,0.03,279.5
2023-01-05T07:40:03,42.805,6.029,-0.012,0.004,0.005,102.0,102.0,102.0,13.4,1505.2,336.2,-0.8,1.8,2471.265,13.29,0.012,288.4
2023-01-05T07:43:03,42.805,6.029,-0.053,-0.004,-0.015,101.0,102.0,101.0,13.4,1505.2,320.3,-0.8,1.8,2471.268,13.29,0.053,265.7
2023-01-05T07:46:03,42.805,6.029,-0.009,0.003,0.002,102.0,102.0,102.0,13.4,1505.2,330.7,-0.8,1.8,2471.243,13.29,0.009,288.4
2023-01-05T07:49:03,42.805,6.029,-0.033,0.015,-0.003,101.0,101.0,102.0,13.4,1505.2,323.1,-0.8,1.8,2471.261,13.29,0.036,294.4
2023-01-05T07:52:03,42.805,6.029,-0.052,0.018,-0.004,101.0,101.0,102.0,13.3,1505.2,322.3,-0.8,1.8,2471.268,13.29,0.055,289.1
2023-01-05T07:55:03,42.805,6.029,-0.033,0.012,0.017,101.0,101.0,101.0,13.4,1505.2,326.7,-0.7,1.8,2471.258,13.29,0.035,290.0
2023-01-05T07:58:03,42.805,6.029,-0.027,0.008,0.012,101.0,102.0,102.0,13.4,1505.2,322.1,-0.8,1.8,2471.268,13.29,0.028,286.5
2023-01-05T08:04:03,42.805,6.029,-0.05,0.023,0.003,101.0,103.0,101.0,13.4,1505.2,332.3,-0.8,1.8,2471.324,13.29,0.055,294.7
2023-01-05T08:07:03,42.805,6.029,0.005,0.004,0.014,102.0,101.0,101.0,13.4,1505.2,322.4,-0.7,1.8,2471.279,13.29,0.006,51.3
2023-01-05T08:10:03,42.805,6.029,-0.051,0.002,0.005,101.0,102.0,101.0,13.4,1505.2,323.2,-0.8,1.8,2471.281,13.29,0.051,272.2
2023-01-05T08:13:03,42.805,6.029,-0.036,0.025,0.01,101.0,102.0,102.0,13.3,1505.2,320.2,-0.8,1.8,2471.303,13.29,0.043,304.8
2023-01-05T08:16:03,42.805,6.029,-0.028,0.018,-0.001,102.0,102.0,102.0,13.3,1505.2,326.7,-0.8,1.8,2471.285,13.29,0.033,302.7
2023-01-05T08:19:03,42.805,6.029,-0.023,0.01,-0.041,102.0,103.0,101.0,13.4,1505.2,329.1,-0.8,1.8,2471.278,13.29,0.025,293.5
2023-01-05T08:22:03,42.805,6.029,-0.036,0.009,0.007,102.0,101.0,101.0,13.4,1505.2,321.0,-0.8,1.8,2471.268,13.29,0.037,284.0
2023-01-05T08:25:03,42.805,6.029,-0.036,0.013,-0.027,102.0,102.0,100.0,13.4,1505.2,321.8,-0.8,1.8,2471.293,13.29,0.038,289.9
2023-01-05T08:28:03,42.805,6.029,-0.053,0.029,0.023,101.0,102.0,102.0,13.4,1505.2,337.2,-0.7,1.8,2471.27,13.29,0.06,298.7
2023-01-05T08:31:03,42.805,6.029,-0.045,0.021,0.018,102.0,101.0,101.0,13.4,1505.2,317.0,-0.7,1.8,2471.302,13.29,0.049,295.0
2023-01-05T08:34:03,42.805,6.029,-0.026,0.007,-0.002,103.0,101.0,102.0,13.3,1505.2,326.9,-0.8,1.8,2471.217,13.29,0.026,285.1
2023-01-05T08:37:03,42.805,6.029,-0.034,0.005,-0.01,101.0,102.0,101.0,13.4,1505.2,329.1,-0.8,1.8,2471.263,13.29,0.034,278.4
2023-01-05T08:40:03,42.805,6.029,-0.036,-0.009,-0.03,103.0,101.0,101.0,13.4,1505.2,316.0,-0.8,1.8,2471.238,13.29,0.037,256.0
2023-01-05T08:43:03,42.805,6.029,-0.032,-0.006,-0.012,103.0,103.0,102.0,13.4,1505.2,321.9,-0.8,1.8,2471.253,13.29,0.032,259.4
2023-01-05T08:46:03,42.805,6.029,-0.028,-0.008,0.004,102.0,101.0,101.0,13.4,1505.2,324.9,-0.8,1.8,2471.28,13.29,0.029,254.1
2023-01-05T08:49:03,42.805,6.029,-0.03,-0.007,-0.025,102.0,102.0,101.0,13.4,1505.2,319.4,-0.7,1.8,2471.251,13.29,0.03,256.9
2023-01-05T08:52:03,42.805,6.029,-0.02,-0.002,0.02,102.0,102.0,102.0,13.4,1505.2,324.6,-0.8,1.8,2471.248,13.29,0.02,264.3
2023-01-05T08:55:03,42.805,6.029,-0.036,0.008,0.014,102.0,103.0,100.0,13.4,1505.2,321.3,-0.8,1.8,2471.271,13.29,0.036,282.5
2023-01-05T08:58:03,42.805,6.029,-0.047,0.022,0.009,102.0,101.0,102.0,13.4,1505.2,326.3,-0.7,1.8,2471.242,13.29,0.051,295.1
2023-01-05T09:04:03,42.805,6.029,-0.026,0.008,0.025,102.0,102.0,102.0,13.4,1505.2,316.0,-0.8,1.8,2471.275,13.28,0.027,287.1
2023-01-05T09:07:03,42.805,6.029,-0.017,-0.012,-0.006,104.0,101.0,101.0,13.4,1505.2,325.4,-0.7,1.8,2471.255,13.29,0.02,234.8
2023-01-05T09:10:03,42.805,6.029,-0.021,0.012,-0.011,101.0,101.0,102.0,13.4,1505.2,335.6,-0.8,1.8,2471.279,13.29,0.024,299.7
2023-01-05T09:13:03,42.805,6.029,-0.041,0.011,-0.01,103.0,102.0,101.0,13.3,1505.2,321.9,-0.8,1.8,2471.298,13.29,0.042,285.0
2023-01-05T09:16:03,42.805,6.029,-0.017,0.0,-0.02,103.0,101.0,101.0,13.3,1505.2,336.3,-0.8,1.8,2471.235,13.29,0.017,270.0
2023-01-05T09:19:03,42.805,6.029,-0.028,0.016,-0.009,101.0,102.0,102.0,13.3,1505.2,317.4,-0.7,1.8,2471.255,13.29,0.032,299.7
2023-01-05T09:22:03,42.805,6.029,-0.034,0.014,0.009,101.0,102.0,101.0,13.4,1505.2,327.0,-0.8,1.8,2471.231,13.29,0.036,292.4
2023-01-05T09:25:03,42.805,6.029,-0.028,0.015,0.015,101.0,102.0,101.0,13.4,1505.2,317.2,-0.8,1.8,2471.273,13.29,0.031,298.2
2023-01-05T09:28:03,42.805,6.029,-0.045,0.011,0.01,102.0,101.0,101.0,13.4,1505.2,323.5,-0.8,1.8,2471.214,13.29,0.046,283.7
2023-01-05T09:31:03,42.805,6.029,-0.041,0.018,0.007,101.0,101.0,101.0,13.4,1505.2,329.3,-0.8,1.8,2471.245,13.29,0.044,293.7
2023-01-05T09:34:03,42.805,6.029,-0.042,0.031,0.02,101.0,102.0,101.0,13.3,1505.2,331.0,-0.8,1.8,2471.236,13.29,0.052,306.4
2023-01-05T09:37:03,42.805,6.029,-0.033,0.01,-0.001,100.0,100.0,102.0,13.4,1505.2,329.0,-0.8,1.8,2471.195,13.29,0.034,286.9
2023-01-05T09:40:03,42.805,6.029,-0.035,0.003,0.005,102.0,99.0,101.0,13.4,1505.2,316.0,-0.8,1.8,2471.229,13.29,0.035,274.9
2023-01-05T09:43:03,42.805,6.029,-0.034,0.016,-0.007,101.0,101.0,102.0,13.4,1505.2,322.3,-0.7,1.8,2471.21,13.29,0.037,295.2
2023-01-05T09:46:03,42.805,6.029,-0.036,0.017,0.024,100.0,101.0,102.0,13.4,1505.2,334.9,-0.8,1.8,2471.19,13.29,0.039,295.3
2023-01-05T09:49:03,42.805,6.029,0.0,-0.019,-0.024,101.0,101.0,101.0,13.4,1505.2,324.3,-0.8,1.8,2471.241,13.29,0.019,180.0
2023-01-05T09:52:03,42.805,6.029,-0.036,0.017,-0.006,102.0,100.0,102.0,13.4,1505.2,330.0,-0.8,1.8,2471.235,13.29,0.039,295.3
2023-01-05T09:55:03,42.805,6.029,-0.028,-0.014,-0.009,102.0,101.0,101.0,13.3,1505.2,324.6,-0.8,1.8,2471.209,13.29,0.031,243.4